Weather History for Minneapolis, MN

Change the Weather History Date:

Tuesday, January 1, 2013

  Actual Average Record
Temperature  
Mean Temperature 8 °F 16 °F  
Max Temperature 20 °F 24 °F 48 °F (1897)
Min Temperature -5 °F 8 °F -30 °F (1974)
Degree Days  
Heating Degree Days 57 49  
Month to date heating degree days 57 49  
Since 1 July heating degree days 2829 3072  
Cooling Degree Days 0 0  
Month to date cooling degree days 0 0  
Year to date cooling degree days 0 0  
Moisture  
Dew Point 3 °F    
Average Humidity 80    
Maximum Humidity 91    
Minimum Humidity 69    
Precipitation  
Precipitation T in 0.03 in 0.47 in (1891)
Month to date precipitation T 0.03  
Year to date precipitation T 0.03  
Snow  
Snow T in 0.40 in 4.00 in (1914)
Month to date snowfall T 0.4  
Since 1 July snowfall 15.8 22.2  
Snow Depth 3.00 in    
Sea Level Pressure  
Sea Level Pressure 30.22 in    
Wind  
Wind Speed 5 mph (SSW)    
Max Wind Speed 13 mph    
Max Gust Speed 16 mph    
Visibility 9 miles    
Events Snow    
T = Trace of Precipitation, MM = Missing Value Source: NWS Daily Summary

Daily Weather History Graph

Daily Weather History Graph

Search for Another Location

Airport:

Trip Planner

Search our weather history database for the weather conditions in past years. The results will help you decide how hot, cold, wet, or windy it might be!

Date:

Astronomy

Jan. 01, 2013 Rise Set
Actual Time 7:50 AM CST 4:42 PM CST
Civil Twilight 7:17 AM CST 5:16 PM CST
Nautical Twilight 6:40 AM CST 5:53 PM CST
Astronomical Twilight 6:04 AM CST 6:28 PM CST
Moon 9:27 PM CST (1/1) 9:51 AM CST (1/1)
Length of Visible Light 9h 59m
Length of Day
8h 51m
Waning Gibbous, 83% of the Moon is Illuminated
Jan 1
Waning Gibbous
Jan 4
Last Quarter
Jan 11
New
Jan 18
First Quarter
Jan 26
Full

Hourly Weather History & Observations

Time (CST) Temp. Windchill Dew Point Humidity Pressure Visibility Wind Dir Wind Speed Gust Speed Precip Events Conditions
12:53 AM -0.0 °F -7.9 °F -5.1 °F 79% 30.32 in 8.0 mi WNW 3.5 mph - N/A   Clear
1:53 AM -2.2 °F -10.4 °F -5.8 °F 85% 30.26 in 8.0 mi WNW 3.5 mph - N/A   Clear
2:53 AM -0.9 °F -8.9 °F -6.0 °F 79% 30.33 in 8.0 mi WNW 3.5 mph - N/A   Clear
3:53 AM -0.9 °F -8.9 °F -6.0 °F 79% 30.33 in 8.0 mi SSW 3.5 mph - N/A   Clear
4:53 AM -2.9 °F - -7.1 °F 82% 30.34 in 9.0 mi Calm Calm - N/A   Clear
5:53 AM -4.0 °F -12.4 °F -7.6 °F 85% 30.28 in 8.0 mi SSW 3.5 mph - N/A   Clear
6:53 AM -5.1 °F -15.8 °F -9.0 °F 83% 30.34 in 9.0 mi SSW 4.6 mph - N/A   Clear
7:53 AM -5.1 °F - -9.0 °F 83% 30.33 in 7.0 mi Calm Calm - N/A   Partly Cloudy
8:53 AM -5.1 °F -13.6 °F -8.0 °F 87% 30.32 in 8.0 mi South 3.5 mph - N/A   Scattered Clouds
9:53 AM -2.9 °F -11.2 °F -6.0 °F 87% 30.32 in 8.0 mi South 3.5 mph - N/A   Partly Cloudy
10:39 AM 1.4 °F -9.9 °F -4.0 °F 78% 30.24 in 9.0 mi South 5.8 mph - N/A   Mostly Cloudy
10:53 AM 1.9 °F - -2.9 °F 80% 30.30 in 9.0 mi Calm Calm - N/A   Mostly Cloudy
11:53 AM 5.0 °F -4.1 °F -2.2 °F 72% 30.20 in 10.0 mi SSW 4.6 mph - N/A   Overcast
12:53 PM 8.1 °F -0.5 °F -0.9 °F 67% 30.25 in 10.0 mi SSW 4.6 mph - N/A   Overcast
1:25 PM 8.6 °F 0.1 °F -0.4 °F 67% 30.16 in 10.0 mi SSW 4.6 mph - N/A   Overcast
1:53 PM 10.9 °F -0.8 °F 1.9 °F 67% 30.22 in 10.0 mi SSW 8.1 mph - 0.00 in Snow Light Snow
2:53 PM 12.2 °F -0.2 °F 6.8 °F 79% 30.15 in 6.0 mi SW 9.2 mph - N/A Snow Light Snow
3:53 PM 12.0 °F 2.7 °F 7.0 °F 80% 30.21 in 6.0 mi SW 5.8 mph - 0.00 in Snow Light Snow
4:04 PM 12.2 °F 4.3 °F 6.8 °F 79% 30.15 in 7.0 mi SW 4.6 mph - 0.00 in Snow Light Snow
4:49 PM 12.2 °F 6.1 °F 8.6 °F 85% 30.14 in 7.0 mi South 3.5 mph - 0.00 in Snow Light Snow
4:53 PM 12.9 °F 5.2 °F 8.1 °F 81% 30.20 in 8.0 mi SSW 4.6 mph - 0.00 in Snow Light Snow
5:51 PM 14.0 °F 8.2 °F 8.6 °F 79% 30.12 in 9.0 mi SSW 3.5 mph - 0.00 in Snow Light Snow
5:53 PM 14.0 °F 8.2 °F 9.0 °F 80% 30.18 in 9.0 mi Variable 3.5 mph - 0.00 in Snow Light Snow
6:53 PM 15.1 °F 6.4 °F 10.9 °F 84% 30.17 in 10.0 mi SSW 5.8 mph - 0.00 in   Overcast
7:20 PM 15.8 °F 8.6 °F 10.4 °F 79% 30.09 in 10.0 mi SSW 4.6 mph - N/A   Overcast
7:53 PM 16.0 °F 7.4 °F 12.0 °F 84% 30.15 in 10.0 mi SSW 5.8 mph - N/A   Overcast
8:53 PM 18.0 °F 9.8 °F 14.0 °F 84% 30.13 in 10.0 mi SW 5.8 mph - N/A   Overcast
9:25 PM 17.6 °F 10.7 °F 15.8 °F 93% 30.06 in 10.0 mi SSW 4.6 mph - N/A   Overcast
9:53 PM 19.0 °F 12.3 °F 15.1 °F 85% 30.11 in 10.0 mi South 4.6 mph - N/A   Overcast
10:53 PM 19.9 °F 8.6 °F 16.0 °F 85% 30.09 in 10.0 mi SSW 10.4 mph - N/A   Overcast
11:53 PM 19.9 °F 10.1 °F 16.0 °F 85% 30.09 in 9.0 mi SW 8.1 mph - N/A   Overcast